When you browse on this site, cookies collect data to enhance your experience and personalize the content and advertising you see.
Visit our Privacy Policy to learn more. By continuing to use the site, you agree to this use of cookies and data.
  • en France
  • Liste des pays
  • À 7 jours
  • Température de l'eau
  • Carte météo
  • Widgets météo
  • user-avatar
    Se connecter

    Météo par heure à Hutor Ilinskiy

    Ce jour, 25 Février, Mardi

    Heure Température Précipitation Vent Pression Humidité
    00:00 -2°C° 0 mm 5 m/s 733 mmHg 84%
    01:00 -2°C° 0 mm 5 m/s 734 mmHg 82%
    02:00 -4°C° 0 mm 6 m/s 734 mmHg 81%
    03:00 -4°C° 0 mm 6 m/s 734 mmHg 80%
    04:00 -4°C° 0 mm 5 m/s 735 mmHg 79%
    05:00 -5°C° 0 mm 5 m/s 735 mmHg 78%
    06:00 -5°C° 0 mm 5 m/s 736 mmHg 78%
    07:00 -4°C° 0 mm 5 m/s 736 mmHg 78%
    08:00 -4°C° 0 mm 5 m/s 736 mmHg 78%
    09:00 -4°C° 0 mm 5 m/s 737 mmHg 74%
    10:00 -2°C° 0 mm 5 m/s 737 mmHg 70%
    11:00 -1°C° 0 mm 5 m/s 737 mmHg 66%
    12:00 -1°C° 0 mm 5 m/s 737 mmHg 64%
    13:00 0°C° 0 mm 4 m/s 737 mmHg 63%
    14:00 0°C° 0 mm 4 m/s 737 mmHg 61%
    15:00 -1°C° 0 mm 4 m/s 737 mmHg 65%
    16:00 0°C° 0 mm 3 m/s 737 mmHg 69%
    17:00 -1°C° 0 mm 3 m/s 737 mmHg 74%
    18:00 -2°C° 0 mm 3 m/s 737 mmHg 77%
    19:00 -2°C° 0 mm 3 m/s 738 mmHg 79%
    20:00 -3°C° 0 mm 4 m/s 738 mmHg 82%
    21:00 -3°C° 0 mm 4 m/s 737 mmHg 84%
    22:00 -3°C° 0 mm 4 m/s 737 mmHg 86%
    23:00 -4°C° 0 mm 4 m/s 737 mmHg 88%

    Demain, 26 Février, Mercredi

    Heure Température Précipitation Vent Pression Humidité
    00:00 -3°C° 0 mm 4 m/s 736 mmHg 88%
    01:00 -3°C° 0 mm 4 m/s 736 mmHg 89%
    02:00 -4°C° 0 mm 5 m/s 736 mmHg 89%
    03:00 -4°C° 0 mm 5 m/s 735 mmHg 89%
    04:00 -4°C° 0 mm 5 m/s 734 mmHg 89%
    05:00 -2°C° 0 mm 5 m/s 734 mmHg 89%
    06:00 -3°C° 0.1 mm 6 m/s 733 mmHg 90%
    07:00 -3°C° 0.1 mm 6 m/s 733 mmHg 91%
    08:00 -3°C° 0.1 mm 6 m/s 732 mmHg 92%
    09:00 -2°C° 0.4 mm 6 m/s 732 mmHg 93%
    10:00 -2°C° 0.4 mm 6 m/s 732 mmHg 94%
    11:00 -1°C° 0.4 mm 7 m/s 731 mmHg 94%
    12:00 -1°C° 0.3 mm 6 m/s 731 mmHg 94%
    13:00 -1°C° 0.3 mm 6 m/s 731 mmHg 94%
    14:00 -1°C° 0.3 mm 6 m/s 731 mmHg 94%
    15:00 -1°C° 0.2 mm 6 m/s 731 mmHg 95%
    16:00 -1°C° 0.2 mm 6 m/s 731 mmHg 95%
    17:00 0°C° 0.2 mm 5 m/s 730 mmHg 96%
    18:00 0°C° 0.1 mm 5 m/s 731 mmHg 96%
    19:00 0°C° 0.1 mm 4 m/s 731 mmHg 96%
    20:00 +1°C° 0.1 mm 3 m/s 731 mmHg 96%
    21:00 +1°C° 0.2 mm 3 m/s 731 mmHg 96%
    22:00 +1°C° 0.2 mm 3 m/s 730 mmHg 96%
    23:00 +1°C° 0.2 mm 3 m/s 730 mmHg 96%

    Après-demain, 27 Février, Jeudi

    Heure Température Précipitation Vent Pression Humidité
    00:00 +1°C° 0.6 mm 3 m/s 730 mmHg 96%
    01:00 +1°C° 0.6 mm 3 m/s 730 mmHg 96%
    02:00 0°C° 0.6 mm 4 m/s 729 mmHg 96%
    03:00 0°C° 0.3 mm 4 m/s 729 mmHg 96%
    04:00 0°C° 0.3 mm 4 m/s 729 mmHg 96%
    05:00 0°C° 0.3 mm 5 m/s 728 mmHg 96%
    06:00 0°C° 0.2 mm 5 m/s 728 mmHg 96%
    07:00 0°C° 0.2 mm 5 m/s 728 mmHg 97%
    08:00 0°C° 0.2 mm 5 m/s 728 mmHg 97%
    09:00 0°C° 0 mm 5 m/s 728 mmHg 97%
    10:00 +1°C° 0 mm 5 m/s 728 mmHg 97%
    11:00 +1°C° 0 mm 5 m/s 728 mmHg 97%
    12:00 +1°C° 0.2 mm 4 m/s 728 mmHg 97%
    13:00 +1°C° 0.2 mm 4 m/s 728 mmHg 97%
    14:00 +2°C° 0.2 mm 3 m/s 728 mmHg 98%
    15:00 +2°C° 0.2 mm 3 m/s 728 mmHg 98%
    16:00 +2°C° 0.2 mm 3 m/s 728 mmHg 98%
    17:00 +1°C° 0.2 mm 3 m/s 728 mmHg 98%
    18:00 +2°C° 0.3 mm 2 m/s 728 mmHg 98%
    19:00 +2°C° 0.3 mm 2 m/s 728 mmHg 97%
    20:00 +2°C° 0.3 mm 2 m/s 728 mmHg 97%
    21:00 +2°C° 0.1 mm 2 m/s 728 mmHg 97%
    22:00 +2°C° 0.1 mm 2 m/s 728 mmHg 97%
    23:00 +1°C° 0.1 mm 3 m/s 728 mmHg 98%

    28 Février, Vendredi

    Heure Température Précipitation Vent Pression Humidité
    00:00 +1°C° 0.3 mm 3 m/s 727 mmHg 98%
    01:00 0°C° 0.3 mm 3 m/s 727 mmHg 98%
    02:00 0°C° 0.3 mm 3 m/s 727 mmHg 98%
    03:00 -1°C° 1.9 mm 4 m/s 727 mmHg 98%
    04:00 -1°C° 1.9 mm 5 m/s 726 mmHg 98%
    05:00 -2°C° 1.9 mm 5 m/s 726 mmHg 98%
    06:00 -3°C° 0.7 mm 6 m/s 726 mmHg 96%
    07:00 -3°C° 0.7 mm 6 m/s 727 mmHg 95%
    08:00 -3°C° 0.7 mm 6 m/s 727 mmHg 93%
    09:00 -2°C° 0.2 mm 6 m/s 727 mmHg 89%
    10:00 -2°C° 0.2 mm 6 m/s 728 mmHg 85%
    11:00 -2°C° 0.2 mm 7 m/s 728 mmHg 81%
    12:00 -2°C° 0 mm 7 m/s 729 mmHg 76%
    13:00 -2°C° 0 mm 7 m/s 730 mmHg 72%
    14:00 -2°C° 0 mm 7 m/s 731 mmHg 68%
    15:00 -2°C° 0 mm 7 m/s 732 mmHg 68%
    16:00 -3°C° 0 mm 6 m/s 732 mmHg 69%
    17:00 -2°C° 0 mm 5 m/s 733 mmHg 69%
    18:00 -4°C° 0 mm 5 m/s 734 mmHg 71%
    19:00 -4°C° 0 mm 5 m/s 734 mmHg 73%
    20:00 -4°C° 0 mm 5 m/s 735 mmHg 74%
    21:00 -4°C° 0 mm 5 m/s 735 mmHg 74%
    22:00 -4°C° 0 mm 5 m/s 736 mmHg 73%
    23:00 -5°C° 0 mm 6 m/s 736 mmHg 73%

    29 Février, Samedi

    Heure Température Précipitation Vent Pression Humidité
    00:00 -5°C° 0 mm 5 m/s 736 mmHg 74%
    01:00 -5°C° 0 mm 5 m/s 737 mmHg 76%
    02:00 -5°C° 0 mm 5 m/s 737 mmHg 77%
    03:00 -4°C° 0 mm 4 m/s 737 mmHg 78%
    04:00 -4°C° 0 mm 4 m/s 737 mmHg 79%
    05:00 -4°C° 0 mm 3 m/s 737 mmHg 80%
    06:00 -4°C° 0 mm 4 m/s 737 mmHg 79%
    07:00 -4°C° 0 mm 4 m/s 737 mmHg 79%
    08:00 -3°C° 0 mm 4 m/s 738 mmHg 78%
    09:00 -2°C° 0 mm 4 m/s 738 mmHg 76%
    10:00 -1°C° 0 mm 4 m/s 737 mmHg 75%
    11:00 -1°C° 0 mm 4 m/s 737 mmHg 73%
    12:00 0°C° 0 mm 4 m/s 737 mmHg 75%
    13:00 0°C° 0 mm 4 m/s 737 mmHg 77%
    14:00 0°C° 0 mm 4 m/s 737 mmHg 79%
    15:00 -1°C° 0.1 mm 4 m/s 737 mmHg 84%
    16:00 0°C° 0.1 mm 3 m/s 737 mmHg 90%
    17:00 -1°C° 0.1 mm 3 m/s 737 mmHg 95%
    18:00 -1°C° 0.5 mm 3 m/s 738 mmHg 93%
    19:00 -2°C° 0.5 mm 3 m/s 738 mmHg 90%
    20:00 -3°C° 0.5 mm 4 m/s 738 mmHg 88%
    21:00 -2°C° 0.1 mm 3 m/s 739 mmHg 84%
    22:00 -4°C° 0.1 mm 3 m/s 739 mmHg 81%
    23:00 -3°C° 0.1 mm 2 m/s 739 mmHg 78%

    1 Mars, Dimanche

    Heure Température Précipitation Vent Pression Humidité
    00:00 -3°C° 0 mm 2 m/s 740 mmHg 79%
    01:00 -4°C° 0 mm 2 m/s 740 mmHg 80%
    02:00 -4°C° 0 mm 2 m/s 740 mmHg 80%
    03:00 -4°C° 0 mm 2 m/s 741 mmHg 83%
    04:00 -4°C° 0 mm 2 m/s 741 mmHg 86%
    05:00 -4°C° 0 mm 2 m/s 741 mmHg 89%
    06:00 -4°C° 0 mm 2 m/s 741 mmHg 88%
    07:00 -4°C° 0 mm 2 m/s 742 mmHg 88%
    08:00 -3°C° 0 mm 2 m/s 742 mmHg 88%
    09:00 -3°C° 0 mm 2 m/s 742 mmHg 85%
    10:00 -2°C° 0 mm 3 m/s 742 mmHg 82%
    11:00 -1°C° 0 mm 3 m/s 742 mmHg 79%
    12:00 -1°C° 0 mm 3 m/s 742 mmHg 77%
    13:00 0°C° 0 mm 3 m/s 742 mmHg 76%
    14:00 -1°C° 0 mm 4 m/s 741 mmHg 75%
    15:00 -2°C° 0 mm 4 m/s 741 mmHg 78%
    16:00 -2°C° 0 mm 4 m/s 741 mmHg 80%
    17:00 -3°C° 0 mm 4 m/s 741 mmHg 83%
    18:00 -3°C° 0 mm 4 m/s 741 mmHg 83%
    19:00 -2°C° 0 mm 5 m/s 741 mmHg 83%
    20:00 -2°C° 0 mm 5 m/s 741 mmHg 83%
    21:00 -4°C° 0.2 mm 6 m/s 741 mmHg 87%
    22:00 -4°C° 0.2 mm 6 m/s 741 mmHg 91%
    23:00 -4°C° 0.2 mm 6 m/s 741 mmHg 95%
    Voir plus